Latest Weather Observations for Loxton

IDS60801

Issued at 7:05 pm CDT Sunday 26 October 2014 (issued every 30 minutes, with the page automatically refreshed every 10 minutes)

About weather observations | Map of weather stations | Latest weather observations for SA | Other Formats
Station Details ID: 024024 Name: LOXTON RESEARCH CENTRE Lat: -34.44 Lon: 140.60 Height: 30.1 m
Data from the previous 72 hours. | See also: Recent months at Loxton
Date/Time
CDT
Temp
°C
App
Temp
°C
Dew
Point
Rel
Hum
%
Delta-T
°C
Wind Press
QNH
hPa
Press
MSL
hPa
Rain
since 9 am
mm
Dir
 
Spd
km/h
Gust
km/h
Spd
kts
Gust
kts
26/07:00pm 23.8 22.4 13.3 51 6.1 ENE 13 17 7 9 1007.9 1007.9 0.4
26/06:30pm 25.3 23.9 13.4 47 7.0 E 13 20 7 11 1008.2 1008.2 0.4
26/06:00pm 24.6 25.6 14.3 52 6.1 E 2 7 1 4 1009.2 1009.2 0.4
26/05:30pm 24.8 24.3 13.8 50 6.5 ENE 9 13 5 7 1008.6 1008.6 0.4
26/05:00pm 24.6 24.5 13.9 51 6.3 SE 7 9 4 5 1009.2 1009.2 0.4
26/04:30pm 24.7 24.6 13.8 50 6.4 SSW 7 11 4 6 1009.8 1009.8 0.4
26/04:00pm 23.9 23.4 13.9 53 5.9 N 9 13 5 7 1009.6 1009.6 0.4
26/03:30pm 23.5 21.8 13.6 53 5.8 N 15 22 8 12 1010.3 1010.3 0.4
26/03:00pm 23.2 22.0 14.0 56 5.4 N 13 19 7 10 1010.3 1010.3 0.4
26/02:30pm 22.4 22.0 14.0 59 4.9 NNE 9 15 5 8 1010.9 1010.9 0.4
26/02:00pm 20.7 19.9 14.0 65 3.9 N 11 13 6 7 1011.3 1011.3 0.4
26/01:30pm 19.5 19.0 13.7 69 3.3 N 9 17 5 9 1012.3 1012.3 0.4
26/01:00pm 18.0 16.0 13.8 76 2.4 NE 17 22 9 12 1011.8 1011.8 0.4
26/12:30pm 17.4 16.4 13.3 77 2.3 N 11 17 6 9 1013.7 1013.6 0.4
26/12:00pm 17.1 14.5 13.2 78 2.2 N 19 26 10 14 1014.1 1014.0 0.4
26/11:30am 16.1 13.9 13.4 84 1.5 ENE 17 22 9 12 1012.8 1012.7 0.4
26/11:21am 15.9 13.2 13.4 85 1.4 ENE 20 24 11 13 1013.0 1012.9 0.4
26/11:00am 16.2 16.5 12.2 77 2.2 N 2 9 1 5 1015.1 1015.0 0.0
26/10:30am 16.3 15.8 11.9 75 2.4 WNW 6 9 3 5 1015.4 1015.3 0.0
26/10:00am 16.5 15.6 11.3 71 2.8 SW 7 13 4 7 1015.7 1015.6 0.0
26/09:30am 15.9 14.5 11.0 72 2.6 SW 9 13 5 7 1016.0 1015.9 0.0
26/09:00am 15.8 13.3 10.9 72 2.6 W 15 20 8 11 1016.7 1016.6 0.0
26/08:34am 15.2 11.3 10.9 75 2.3 W 22 32 12 17 1017.5 1017.4 0.0
26/08:30am 15.0 14.6 11.1 77 2.1 SW 4 13 2 7 1015.4 1015.3 0.0
26/08:00am 13.9 12.9 10.9 82 1.6 SW 7 9 4 5 1014.5 1014.4 0.0
26/07:30am 12.5 11.1 10.8 89 0.9 SSW 9 11 5 6 1014.1 1014.0 0.0
26/07:00am 11.5 9.9 10.1 91 0.7 SSW 9 13 5 7 1013.7 1013.6 0.0
26/06:30am 11.0 9.7 10.0 93 0.5 WSW 7 9 4 5 1013.9 1013.8 0.0
26/06:00am 10.7 9.3 9.7 93 0.5 W 7 11 4 6 1013.9 1013.8 0.0
26/05:30am 11.0 9.9 9.8 92 0.6 WNW 6 7 3 4 1013.4 1013.3 0.0
26/05:00am 11.2 9.9 10.0 92 0.6 W 7 11 4 6 1013.6 1013.5 0.0
26/04:30am 11.7 10.1 10.1 90 0.8 W 9 11 5 6 1013.7 1013.6 0.0
26/04:00am 12.0 10.8 10.2 89 0.9 WSW 7 9 4 5 1013.5 1013.4 0.0
26/03:30am 11.6 10.4 10.2 91 0.7 WSW 7 9 4 5 1013.3 1013.2 0.0
26/03:00am 12.3 11.7 10.4 88 1.0 WSW 4 7 2 4 1013.4 1013.3 0.0
26/02:30am 12.9 12.0 10.6 86 1.2 SW 6 7 3 4 1013.7 1013.6 0.0
26/02:00am 13.2 11.7 10.5 84 1.4 WSW 9 13 5 7 1014.2 1014.1 0.0
26/01:30am 13.4 11.8 10.3 81 1.6 SW 9 11 5 6 1014.5 1014.4 0.0
26/01:00am 14.4 13.3 10.6 78 2.0 SW 7 11 4 6 1014.8 1014.7 0.0
26/12:30am 15.4 13.1 10.5 72 2.6 WSW 13 15 7 8 1015.3 1015.2 0.0
26/12:00am 16.1 14.1 10.2 68 3.1 WSW 11 15 6 8 1015.4 1015.3 0.0
 
Date/Time
CDT
Temp
°C
App
Temp
°C
Dew
Point
Rel
Hum
%
Delta-T
°C
Wind Press
QNH
hPa
Press
MSL
hPa
Rain
since 9 am
mm
Dir
 
Spd
km/h
Gust
km/h
Spd
kts
Gust
kts
25/11:30pm 16.9 14.4 9.6 62 3.8 SW 13 24 7 13 1015.5 1015.4 0.0
25/11:00pm 17.8 14.8 9.4 58 4.4 SW 15 20 8 11 1015.5 1015.4 0.0
25/10:30pm 18.8 16.1 9.1 53 5.1 SSW 13 20 7 11 1015.4 1015.3 0.0
25/10:00pm 19.6 17.7 9.2 51 5.5 SW 9 13 5 7 1015.7 1015.6 0.0
25/09:30pm 20.8 18.9 9.1 47 6.2 SW 9 15 5 8 1015.5 1015.4 0.0
25/09:00pm 21.8 19.1 9.0 44 6.8 SSW 13 19 7 10 1015.1 1015.0 0.0
25/08:30pm 23.0 20.3 8.8 40 7.6 SSW 13 19 7 10 1014.7 1014.6 0.0
25/08:00pm 24.4 20.3 8.0 35 8.7 SSW 19 26 10 14 1014.2 1014.1 0.0
25/07:30pm 25.5 21.3 7.3 31 9.6 SSW 19 30 10 16 1013.7 1013.6 0.0
25/07:00pm 27.1 23.6 7.4 28 10.5 S 15 24 8 13 1013.5 1013.4 0.0
25/06:30pm 28.2 24.3 7.0 26 11.3 SSW 17 26 9 14 1013.1 1013.0 0.0
25/06:00pm 29.1 24.8 6.8 24 11.9 SSW 19 28 10 15 1012.8 1012.7 0.0
25/05:30pm 29.4 24.8 6.5 23 12.2 SW 20 32 11 17 1012.6 1012.6 0.0
25/05:00pm 30.7 26.0 6.1 21 13.1 SSW 20 32 11 17 1012.5 1012.5 0.0
25/04:30pm 30.9 26.3 5.5 20 13.4 WSW 19 28 10 15 1012.5 1012.5 0.0
25/04:00pm 30.4 25.5 4.2 19 13.5 WSW 19 32 10 17 1012.6 1012.6 0.0
25/03:30pm 30.4 25.6 4.5 19 13.4 WSW 19 37 10 20 1012.8 1012.7 0.0
25/03:00pm 30.1 25.0 4.3 19 13.3 WSW 20 32 11 17 1013.2 1013.1 0.0
25/02:30pm 30.4 26.2 5.9 21 13.0 SW 17 24 9 13 1013.2 1013.1 0.0
25/02:00pm 30.0 25.8 5.7 21 12.8 WSW 17 28 9 15 1013.5 1013.4 0.0
25/01:30pm 29.3 25.1 5.7 22 12.4 WSW 17 28 9 15 1013.6 1013.5 0.0
25/01:00pm 28.5 24.2 5.1 22 12.1 WSW 17 22 9 12 1013.9 1013.8 0.0
25/12:30pm 28.0 23.2 5.4 23 11.7 WSW 20 24 11 13 1014.4 1014.3 0.0
25/12:00pm 27.0 23.0 6.7 27 10.7 SSW 17 26 9 14 1014.8 1014.7 0.0
25/11:30am 25.9 21.8 7.7 31 9.7 SW 19 32 10 17 1015.4 1015.3 0.0
25/11:00am 24.6 21.1 8.8 36 8.5 SW 17 22 9 12 1015.7 1015.6 0.0
25/10:30am 23.5 20.8 10.2 43 7.3 SW 15 24 8 13 1016.2 1016.1 0.0
25/10:00am 21.4 19.2 10.8 50 5.8 SW 13 19 7 10 1016.2 1016.1 0.0
25/09:30am 19.7 17.2 11.1 57 4.7 SSW 15 22 8 12 1016.6 1016.5 0.0
25/09:00am 18.3 15.9 11.3 63 3.8 SW 15 19 8 10 1016.3 1016.2 0.0
25/08:30am 16.8 14.3 11.2 69 3.0 SW 15 24 8 13 1016.3 1016.2 0.0
25/08:00am 16.0 13.3 11.6 75 2.4 SSW 17 24 9 13 1016.1 1016.0 0.0
25/07:30am 14.9 12.5 11.5 80 1.8 SSW 15 19 8 10 1015.7 1015.6 0.0
25/07:00am 13.8 11.4 11.4 85 1.3 SW 15 22 8 12 1015.4 1015.3 0.0
25/06:30am 14.1 11.7 11.5 84 1.4 W 15 20 8 11 1015.5 1015.4 0.0
25/06:00am 14.3 12.6 11.3 82 1.6 SSE 11 15 6 8 1013.6 1013.5 0.0
25/05:30am 14.9 13.7 11.5 80 1.8 WSW 9 13 5 7 1014.6 1014.5 0.0
25/05:00am 15.6 13.9 11.3 75 2.3 SW 11 17 6 9 1014.2 1014.1 0.0
25/04:30am 15.9 14.2 11.2 73 2.5 SSW 11 17 6 9 1013.8 1013.7 0.0
25/04:00am 16.5 14.7 10.7 68 3.1 SSW 11 17 6 9 1013.9 1013.8 0.0
25/03:30am 17.1 14.4 10.3 64 3.6 SSW 15 22 8 12 1013.6 1013.5 0.0
25/03:00am 17.7 14.8 9.7 59 4.2 SSW 15 20 8 11 1013.8 1013.7 0.0
25/02:30am 18.4 15.8 9.3 55 4.8 SSW 13 17 7 9 1013.9 1013.8 0.0
25/02:00am 19.2 16.5 9.1 52 5.3 SSW 13 19 7 10 1014.1 1014.0 0.0
25/01:30am 19.9 18.0 8.9 49 5.8 SSW 9 15 5 8 1014.3 1014.2 0.0
25/01:00am 20.1 17.2 8.2 46 6.2 S 13 17 7 9 1014.0 1013.9 0.0
25/12:30am 20.7 17.9 7.0 41 7.0 S 11 17 6 9 1014.2 1014.1 0.0
25/12:00am 21.6 18.5 5.6 35 8.0 S 11 15 6 8 1014.2 1014.1 0.0
 
Date/Time
CDT
Temp
°C
App
Temp
°C
Dew
Point
Rel
Hum
%
Delta-T
°C
Wind Press
QNH
hPa
Press
MSL
hPa
Rain
since 9 am
mm
Dir
 
Spd
km/h
Gust
km/h
Spd
kts
Gust
kts
24/11:30pm 22.4 19.0 6.0 34 8.3 SSW 13 17 7 9 1014.4 1014.3 0.0
24/11:00pm 23.2 19.7 5.5 31 8.9 SSW 13 20 7 11 1014.8 1014.7 0.0
24/10:30pm 24.3 20.3 4.7 28 9.8 SSE 15 19 8 10 1013.8 1013.7 0.0
24/10:00pm 25.6 21.2 4.5 25 10.6 SSE 17 26 9 14 1013.6 1013.5 0.0
24/09:30pm 26.1 21.8 5.4 26 10.6 S 17 26 9 14 1013.3 1013.2 0.0
24/09:00pm 27.0 23.6 5.8 26 11.0 SSE 13 22 7 12 1012.8 1012.7 0.0
24/08:30pm 27.4 24.8 7.7 28 10.6 SSE 11 15 6 8 1012.1 1012.1 0.0
24/08:00pm 28.3 25.5 6.9 26 11.4 S 11 15 6 8 1011.8 1011.8 0.0
24/07:30pm 26.9 26.9 13.5 43 7.9 SSW 6 6 3 3 1011.4 1011.4 0.0
24/07:24pm 27.3 27.1 13.0 41 8.4 SSW 6 7 3 4 1011.3 1011.3 0.0
24/07:00pm 32.4 31.3 10.1 25 12.8 W 6 9 3 5 1011.1 1011.1 0.0
24/06:30pm 34.8 30.3 2.2 13 16.7 WSW 15 22 8 12 1010.9 1010.9 0.0
24/06:00pm 35.2 30.2 1.5 12 17.1 WSW 17 22 9 12 1010.9 1010.9 0.0
24/05:30pm 35.9 31.7 3.7 13 17.0 W 15 20 8 11 1010.9 1010.9 0.0
24/05:00pm 35.7 31.1 1.5 11 17.4 W 15 28 8 15 1010.9 1010.9 0.0
24/04:30pm 35.9 33.3 3.3 13 17.1 W 6 17 3 9 1011.1 1011.1 0.0
24/04:00pm 34.6 31.9 3.6 14 16.2 SSW 7 13 4 7 1011.5 1011.5 0.0
24/03:30pm 34.8 30.2 1.7 12 16.8 W 15 24 8 13 1011.8 1011.8 0.0
24/03:00pm 34.4 30.3 2.4 13 16.4 WSW 13 20 7 11 1012.1 1012.1 0.0
24/02:30pm 34.1 30.0 2.0 13 16.3 WSW 13 22 7 12 1012.3 1012.3 0.0
24/02:00pm 33.0 28.5 2.2 14 15.6 SW 15 22 8 12 1012.8 1012.7 0.0
24/01:30pm 32.9 27.9 1.5 13 15.7 W 17 26 9 14 1013.0 1012.9 0.0
24/01:00pm 32.5 27.9 1.3 13 15.5 WNW 15 24 8 13 1013.3 1013.2 0.0
24/12:30pm 30.9 27.8 7.1 22 12.9 W 13 24 7 13 1013.6 1013.5 0.0
24/12:00pm 29.7 26.9 8.5 26 11.7 W 13 22 7 12 1014.0 1013.9 0.0
24/11:30am 27.9 25.3 9.3 31 10.3 WNW 13 19 7 10 1014.4 1014.3 0.0
24/11:00am 26.5 23.8 8.9 33 9.6 WNW 13 20 7 11 1014.7 1014.6 0.0
24/10:30am 24.5 22.6 10.4 41 7.8 W 11 15 6 8 1015.1 1015.0 0.0
24/10:00am 21.9 21.2 11.5 51 5.8 WNW 6 9 3 5 1014.8 1014.7 0.0
24/09:30am 19.6 18.8 11.8 60 4.3 NW 7 11 4 6 1014.9 1014.8 0.0
24/09:00am 17.2 16.1 11.9 71 2.9 NW 9 13 5 7 1014.9 1014.8 0.0
24/08:30am 16.0 15.5 12.0 77 2.2 NNW 6 11 3 6 1014.7 1014.6 0.0
24/08:00am 14.5 13.8 11.9 84 1.4 NNW 7 9 4 5 1014.2 1014.1 0.0
24/07:30am 13.5 14.0 11.6 88 1.0 CALM 0 0 0 0 1014.2 1014.1 0.0
24/07:00am 12.8 13.2 11.3 91 0.8 CALM 0 0 0 0 1013.9 1013.8 0.0
24/06:30am 12.3 11.5 11.2 93 0.6 NW 6 7 3 4 1013.7 1013.6 0.0
24/06:00am 11.7 11.9 10.7 94 0.5 CALM 0 0 0 0 1013.7 1013.6 0.0
24/05:30am 11.3 11.4 10.1 92 0.6 CALM 0 0 0 0 1012.9 1012.8 0.0
24/05:00am 11.5 10.3 10.3 92 0.6 S 7 7 4 4 1012.4 1012.4 0.0
24/04:30am 12.1 12.3 10.4 89 0.9 CALM 0 0 0 0 1012.8 1012.7 0.0
24/04:00am 13.3 12.0 11.4 88 1.0 WSW 9 13 5 7 1013.3 1013.2 0.0
24/03:30am 13.6 12.3 11.3 86 1.2 W 9 11 5 6 1013.4 1013.3 0.0
24/03:00am 14.1 12.9 11.5 84 1.4 W 9 13 5 7 1013.6 1013.5 0.0
24/02:30am 14.6 13.5 11.8 83 1.5 W 9 13 5 7 1013.6 1013.5 0.0
24/02:00am 14.9 14.0 11.4 79 1.9 WSW 7 9 4 5 1013.6 1013.5 0.0
24/01:30am 15.6 14.0 11.5 76 2.2 WSW 11 15 6 8 1014.0 1013.9 0.0
24/01:00am 15.9 16.4 11.7 76 2.3 CALM 0 0 0 0 1014.2 1014.1 0.0
24/12:30am 16.8 15.5 11.4 70 2.9 WSW 9 13 5 7 1014.5 1014.4 0.0
24/12:00am 17.5 16.3 11.6 68 3.2 WSW 9 17 5 9 1014.6 1014.5 0.0
 
Date/Time
CDT
Temp
°C
App
Temp
°C
Dew
Point
Rel
Hum
%
Delta-T
°C
Wind Press
QNH
hPa
Press
MSL
hPa
Rain
since 9 am
mm
Dir
 
Spd
km/h
Gust
km/h
Spd
kts
Gust
kts
23/11:30pm 18.4 16.1 11.7 65 3.7 SW 15 20 8 11 1014.6 1014.5 0.0
23/11:00pm 19.3 16.6 11.7 61 4.2 SSW 17 20 9 11 1014.6 1014.5 0.0
23/10:30pm 20.4 17.2 11.8 57 4.8 SSW 20 28 11 15 1014.6 1014.5 0.0
23/10:00pm 21.7 19.0 11.7 53 5.6 SSW 17 24 9 13 1014.4 1014.3 0.0
23/09:30pm 23.1 20.3 11.5 48 6.5 SSW 17 24 9 13 1014.4 1014.3 0.0
23/09:00pm 24.4 21.5 11.0 43 7.5 SSW 17 26 9 14 1014.0 1013.9 0.0
23/08:30pm 25.6 22.2 9.1 35 9.0 SW 17 24 9 13 1013.5 1013.4 0.0
23/08:00pm 26.2 23.4 8.5 32 9.6 SW 13 19 7 10 1013.1 1013.0 0.0
23/07:30pm 27.0 24.4 7.8 29 10.3 SW 11 15 6 8 1012.6 1012.6 0.0

Other Formats:

Comma delimited format used in spreadsheet applications
http://www.bom.gov.au/fwo/IDS60801/IDS60801.94682.axf

JavaScript Object Notation format (JSON) in row-major order
http://www.bom.gov.au/fwo/IDS60801/IDS60801.94682.json